Find Kosmos-2471

NORAD ID: 37372 Int'l Des: 2011-009 Owner: KVR/IACG Country: RU Constellation: GLONASS operational
MEOCIRCULAR

实时位置

正在加载3D地球...

关于 Kosmos-2471

正在加载描述...

即将过境

Passes for default location (London). Set your location on the main map for personalized predictions.

高度历史

Loading altitude history...

两行轨道根数

1 37372U 11009A 26118.19038380 -.00000036 00000-0 00000+0 0 9992
2 37372 65.4367 316.1770 0008377 330.3750 214.2243 2.12911120118014
Epoch: Apr 28, 2026 • Age: 65 hours

当前状态

高度 19164.7 km
速度 3.95 km/s
星下点 64.99°N, 140.69°W
发射日期 Feb 26, 2011
运行时间 15.1 years
类型 other

技术详情

分类 Payload
质量 935.00 kg
干质量 800.00 kg
总质量 935.00 kg
长度 2.00 m
直径 1.00 m
跨度 5.00 m
形状 Box + 2 Pan
制造商 RESH
平台类型 Ekspress-1000
阶段状态 In Orbit
所有者/国家 KVR/IACG/RU

Most Searched